Voltar ao catálogo

SINOD-D 3

AtivoCiênciaLEO
NORAD 40977·PAYLOAD·🇺🇸 United States

Lançado Oct 8, 2015 de Vandenberg Space Force Base

Loading…

Próximas Passagens (próximas 24 horas)

TLE

AtualizadoSource: Space-Track

Época: Sep 14, 2026, 06:01 UTC

1 40977U 15058P   26257.25131723  .00001855  00000-0  16055-3 0  9991
2 40977  64.7742 357.5662 0126618  24.2562 336.4440 14.94561996128063

Acompanhe SINOD-D 3 em tempo real com AllMySat

Download on the App Store